When you browse on this site, cookies collect data to enhance your experience and personalize the content and advertising you see.
Visit our Privacy Policy to learn more. By continuing to use the site, you agree to this use of cookies and data.
  • In Hungary
  • List of Countries
  • For 7 days
  • Water Temperature
  • Satellite Maps
  • Weather Map
  • News
  • Weather Widgets
  • user-avatar
    Login

    Hourly Weather Lubliniec

    Today, 21 February, Thursday

    Time Temperature Precipitation Wind Pressure Humidity
    00:00 +3°C° 0 mm 2 mps 744 mmHg 86%
    01:00 +3°C° 0 mm 2 mps 744 mmHg 88%
    02:00 +3°C° 0 mm 2 mps 745 mmHg 88%
    03:00 +3°C° 0 mm 2 mps 745 mmHg 87%
    04:00 +2°C° 0 mm 3 mps 745 mmHg 87%
    05:00 +2°C° 0 mm 3 mps 745 mmHg 86%
    06:00 +2°C° 0 mm 3 mps 745 mmHg 86%
    07:00 +2°C° 0 mm 3 mps 745 mmHg 86%
    08:00 +3°C° 0 mm 3 mps 745 mmHg 81%
    09:00 +4°C° 0 mm 3 mps 745 mmHg 76%
    10:00 +5°C° 0 mm 3 mps 745 mmHg 72%
    11:00 +6°C° 0 mm 4 mps 745 mmHg 69%
    12:00 +6°C° 0 mm 4 mps 744 mmHg 67%
    13:00 +7°C° 0 mm 4 mps 744 mmHg 65%
    14:00 +7°C° 0.1 mm 4 mps 744 mmHg 67%
    15:00 +6°C° 0.1 mm 4 mps 743 mmHg 70%
    16:00 +6°C° 0.1 mm 4 mps 743 mmHg 72%
    17:00 +6°C° 0.5 mm 4 mps 743 mmHg 76%
    18:00 +5°C° 0.5 mm 4 mps 743 mmHg 79%
    19:00 +5°C° 0.5 mm 4 mps 743 mmHg 83%
    20:00 +5°C° 0.3 mm 5 mps 743 mmHg 83%
    21:00 +5°C° 0.3 mm 5 mps 742 mmHg 83%
    22:00 +5°C° 0.3 mm 5 mps 742 mmHg 83%
    23:00 +5°C° 0.2 mm 5 mps 742 mmHg 85%

    Tomorrow, 22 February, Friday

    Time Temperature Precipitation Wind Pressure Humidity
    00:00 +5°C° 0.2 mm 5 mps 741 mmHg 88%
    01:00 +5°C° 0.2 mm 5 mps 741 mmHg 90%
    02:00 +5°C° 0.4 mm 5 mps 741 mmHg 91%
    03:00 +5°C° 0.4 mm 5 mps 741 mmHg 92%
    04:00 +5°C° 0.4 mm 5 mps 741 mmHg 93%
    05:00 +5°C° 0.5 mm 5 mps 742 mmHg 92%
    06:00 +3°C° 0.5 mm 6 mps 743 mmHg 90%
    07:00 +3°C° 0.5 mm 6 mps 743 mmHg 88%
    08:00 +2°C° 0 mm 6 mps 745 mmHg 83%
    09:00 +1°C° 0 mm 6 mps 746 mmHg 78%
    10:00 -1°C° 0 mm 6 mps 747 mmHg 73%
    11:00 -1°C° 0 mm 6 mps 748 mmHg 68%
    12:00 -1°C° 0 mm 6 mps 749 mmHg 62%
    13:00 0°C° 0 mm 5 mps 750 mmHg 57%
    14:00 0°C° 0 mm 5 mps 750 mmHg 53%
    15:00 0°C° 0 mm 5 mps 751 mmHg 49%
    16:00 -1°C° 0 mm 5 mps 751 mmHg 45%
    17:00 -2°C° 0 mm 5 mps 752 mmHg 47%
    18:00 -4°C° 0 mm 5 mps 753 mmHg 49%
    19:00 -3°C° 0 mm 4 mps 753 mmHg 51%
    20:00 -4°C° 0 mm 4 mps 754 mmHg 50%
    21:00 -4°C° 0 mm 4 mps 754 mmHg 49%
    22:00 -4°C° 0 mm 4 mps 755 mmHg 48%
    23:00 -4°C° 0 mm 4 mps 755 mmHg 46%

    Day after tomorrow, 23 February, Saturday

    Time Temperature Precipitation Wind Pressure Humidity
    00:00 -5°C° 0 mm 3 mps 755 mmHg 44%
    01:00 -5°C° 0 mm 3 mps 756 mmHg 43%
    02:00 -5°C° 0 mm 3 mps 756 mmHg 42%
    03:00 -5°C° 0 mm 3 mps 756 mmHg 41%
    04:00 -4°C° 0 mm 2 mps 755 mmHg 40%
    05:00 -4°C° 0 mm 2 mps 756 mmHg 39%
    06:00 -4°C° 0 mm 2 mps 756 mmHg 38%
    07:00 -5°C° 0 mm 2 mps 756 mmHg 38%
    08:00 -4°C° 0 mm 2 mps 757 mmHg 35%
    09:00 -3°C° 0 mm 2 mps 757 mmHg 32%
    10:00 -3°C° 0 mm 2 mps 757 mmHg 29%
    11:00 -2°C° 0 mm 2 mps 757 mmHg 27%
    12:00 -2°C° 0 mm 2 mps 757 mmHg 25%
    13:00 -1°C° 0 mm 2 mps 757 mmHg 23%
    14:00 -1°C° 0 mm 2 mps 756 mmHg 23%
    15:00 -1°C° 0 mm 2 mps 756 mmHg 24%
    16:00 -1°C° 0 mm 2 mps 756 mmHg 25%
    17:00 0°C° 0 mm 1 mps 756 mmHg 28%
    18:00 0°C° 0 mm 1 mps 756 mmHg 32%
    19:00 -1°C° 0 mm 1 mps 756 mmHg 35%
    20:00 -2°C° 0 mm 0 mps 756 mmHg 35%
    21:00 -2°C° 0 mm 0 mps 756 mmHg 35%
    22:00 -2°C° 0 mm 0 mps 756 mmHg 34%
    23:00 -2°C° 0 mm 0 mps 756 mmHg 34%

    24 February, Sunday

    Time Temperature Precipitation Wind Pressure Humidity
    00:00 -2°C° 0 mm 0 mps 756 mmHg 33%
    01:00 -1°C° 0 mm 1 mps 756 mmHg 33%
    02:00 -1°C° 0 mm 1 mps 755 mmHg 33%
    03:00 -1°C° 0 mm 1 mps 755 mmHg 34%
    04:00 -1°C° 0 mm 1 mps 754 mmHg 34%
    05:00 -1°C° 0 mm 1 mps 754 mmHg 33%
    06:00 -1°C° 0 mm 1 mps 754 mmHg 33%
    07:00 -1°C° 0 mm 1 mps 754 mmHg 32%
    08:00 -2°C° 0 mm 2 mps 754 mmHg 30%
    09:00 -1°C° 0 mm 2 mps 754 mmHg 28%
    10:00 +1°C° 0 mm 2 mps 754 mmHg 26%
    11:00 +1°C° 0 mm 3 mps 754 mmHg 28%
    12:00 +2°C° 0 mm 3 mps 753 mmHg 30%
    13:00 +3°C° 0 mm 3 mps 753 mmHg 32%
    14:00 +3°C° 0 mm 3 mps 752 mmHg 39%
    15:00 +3°C° 0 mm 3 mps 752 mmHg 45%
    16:00 +2°C° 0 mm 3 mps 752 mmHg 52%
    17:00 +2°C° 0 mm 3 mps 752 mmHg 56%
    18:00 +2°C° 0 mm 3 mps 752 mmHg 61%
    19:00 +1°C° 0 mm 3 mps 752 mmHg 65%
    20:00 +1°C° 0 mm 3 mps 751 mmHg 69%
    21:00 +1°C° 0 mm 3 mps 751 mmHg 73%
    22:00 0°C° 0 mm 3 mps 751 mmHg 76%
    23:00 -1°C° 0 mm 4 mps 751 mmHg 80%

    25 February, Monday

    Time Temperature Precipitation Wind Pressure Humidity
    00:00 -1°C° 0 mm 4 mps 751 mmHg 83%
    01:00 -1°C° 0 mm 4 mps 751 mmHg 87%
    02:00 -1°C° 0 mm 4 mps 751 mmHg 89%
    03:00 -1°C° 0 mm 4 mps 751 mmHg 92%
    04:00 0°C° 0 mm 4 mps 751 mmHg 95%
    05:00 0°C° 0 mm 4 mps 752 mmHg 95%
    06:00 -1°C° 0 mm 4 mps 752 mmHg 95%
    07:00 0°C° 0 mm 3 mps 752 mmHg 94%
    08:00 0°C° 0 mm 4 mps 752 mmHg 87%
    09:00 +1°C° 0 mm 4 mps 752 mmHg 79%
    10:00 +2°C° 0 mm 5 mps 753 mmHg 72%
    11:00 +2°C° 0 mm 5 mps 752 mmHg 65%
    12:00 +3°C° 0 mm 6 mps 752 mmHg 58%
    13:00 +4°C° 0 mm 6 mps 752 mmHg 51%
    14:00 +4°C° 0 mm 6 mps 752 mmHg 51%
    15:00 +4°C° 0 mm 6 mps 751 mmHg 51%
    16:00 +4°C° 0 mm 6 mps 751 mmHg 51%
    17:00 +3°C° 0 mm 5 mps 751 mmHg 54%
    18:00 +2°C° 0 mm 5 mps 752 mmHg 58%
    19:00 +1°C° 0 mm 4 mps 752 mmHg 61%
    20:00 +1°C° 0 mm 4 mps 752 mmHg 65%
    21:00 +1°C° 0 mm 3 mps 752 mmHg 68%
    22:00 +1°C° 0 mm 3 mps 752 mmHg 72%
    23:00 0°C° 0 mm 3 mps 752 mmHg 75%

    26 February, Tuesday

    Time Temperature Precipitation Wind Pressure Humidity
    00:00 +1°C° 0 mm 2 mps 751 mmHg 78%
    01:00 -1°C° 0 mm 2 mps 751 mmHg 81%
    02:00 -1°C° 0 mm 2 mps 751 mmHg 80%
    03:00 -1°C° 0 mm 2 mps 750 mmHg 79%
    04:00 -1°C° 0 mm 2 mps 750 mmHg 78%
    05:00 -1°C° 0 mm 3 mps 750 mmHg 78%
    06:00 -1°C° 0 mm 3 mps 750 mmHg 78%
    07:00 -1°C° 0 mm 3 mps 750 mmHg 77%
    08:00 0°C° 0 mm 3 mps 750 mmHg 72%
    09:00 +2°C° 0 mm 3 mps 749 mmHg 66%
    10:00 +3°C° 0 mm 3 mps 749 mmHg 61%
    11:00 +4°C° 0 mm 3 mps 749 mmHg 59%
    12:00 +5°C° 0 mm 3 mps 748 mmHg 56%
    13:00 +6°C° 0 mm 4 mps 748 mmHg 54%
    14:00 +6°C° 0 mm 4 mps 747 mmHg 55%
    15:00 +6°C° 0 mm 4 mps 747 mmHg 56%
    16:00 +7°C° 0 mm 3 mps 746 mmHg 57%
    17:00 +7°C° 0 mm 3 mps 746 mmHg 59%
    18:00 +5°C° 0 mm 3 mps 746 mmHg 61%
    19:00 +4°C° 0 mm 3 mps 746 mmHg 63%
    20:00 +4°C° 0 mm 3 mps 746 mmHg 64%
    21:00 +4°C° 0 mm 3 mps 746 mmHg 64%
    22:00 +3°C° 0 mm 3 mps 745 mmHg 65%
    23:00 +3°C° 0 mm 3 mps 745 mmHg 69%
    Show more